Home > Weather > Reading > Past weeks

Flag for United Kingdom Past Weather in Reading, England, United Kingdom — Yesterday and Last 2 Weeks

Now
52 °F

Clear.


Feels Like: 52 °F
Forecast: 60 / 70 °F
Wind: 2 mph from South

Location: Benson

Current Time: Jul 26, 2016 at 3:46:30 AM

Latest Report: Jul 26, 2016 at 2:50 AM


Visibility: N/A

Pressure: 30.15 "Hg

Humidity: 94%

Dew Point: 50 °F

Location of ReadingLocation

Past Weather in Reading — Graph

°F

Reading Temperature Yesterday

Maximum temperature yesterday: 72 °F (at 1:50 PM)
Minimum temperature yesterday: 52 °F (at 4:50 AM)
Average temperature yesterday: 63 °F

High & Low Weather Summary for the Past Weeks

 TemperatureHumidityPressure
High91 °F (Jul 19, 3:50 PM)100% (Jul 12, 4:50 AM)30.30 "Hg (Jul 12, 4:50 AM)
Low43 °F (Jul 15, 3:50 AM)36% (Jul 19, 3:50 PM)29.65 "Hg (Jul 11, 4:50 AM)
Average65 °F74%30.07 "Hg
* Reported Jul 11 1:50 AM — Jul 26 1:50 AM, Reading, Weather by CustomWeather, © 2016

Note: Actual official high and low records may vary slightly from our data, if they occured in-between our weather recording intervals... More about our weather records

Advertising

Reading Weather History for the Previous 24 Hours

Scroll right to see more
 ConditionsComfort  
Time TempWeatherWind HumidityBarometerVisibility
1:50 AM
Tue, Jul 26
54 °FPassing clouds.3 mph94%30.15 "HgN/A
12:50 AM55 °FPassing clouds.5 mph88%30.15 "HgN/A
11:50 PM
Mon, Jul 25
59 °FPassing clouds.3 mph82%30.15 "HgN/A
10:50 PM61 °FClear.6 mph77%30.15 "Hg10 mi
9:50 PM63 °FPartly sunny.7 mph73%30.12 "HgN/A
8:50 PM64 °FBroken clouds.8 mph68%30.12 "HgN/A
7:50 PM68 °FPartly sunny.10 mph56%30.09 "HgN/A
6:50 PM70 °FBroken clouds.9 mph50%30.09 "HgN/A
5:50 PM70 °FSunny.10 mph50%30.09 "Hg10 mi
4:50 PM72 °FSunny.12 mph44%30.09 "Hg10 mi
3:50 PM72 °FSunny.10 mph41%30.09 "Hg10 mi
2:50 PM70 °FSunny.10 mph46%30.09 "Hg10 mi
1:50 PM72 °FSunny.12 mph44%30.09 "Hg10 mi
12:50 PM70 °FBroken clouds.12 mph43%30.09 "HgN/A
11:50 AM70 °FBroken clouds.12 mph50%30.09 "HgN/A
10:50 AM66 °FBroken clouds.9 mph60%30.09 "HgN/A
9:50 AM64 °FPartly sunny.10 mph68%30.09 "HgN/A
8:50 AM63 °FPartly sunny.7 mph77%30.09 "HgN/A
7:50 AM61 °FPartly sunny.6 mph88%30.09 "HgN/A
6:50 AM57 °FPartly sunny.6 mph94%30.09 "HgN/A
5:50 AM54 °FPassing clouds.5 mph100%30.07 "HgN/A
4:50 AM52 °FClear.6 mph100%30.07 "HgN/A
3:50 AM54 °FClear.5 mph94%30.07 "HgN/A
Weather by CustomWeather, © 2016

See weather overviewHow to use our weather pages